timestamp,wind_dir_avg,wind_spd_avg,wind_spd_max_dir,wind_spd_gust,battery_voltage,lat,long
2023-11-11 00:04:00+00:00,284.0,8.16,286.0,9.92,12.41,47.59359,-54.27349
2023-11-11 00:14:01+00:00,285.0,8.36,292.0,10.21,12.41,47.59359,-54.27349
2023-11-11 00:24:01+00:00,285.0,7.64,285.0,8.38,12.41,47.59359,-54.27349
2023-11-11 00:34:01+00:00,276.0,7.54,279.0,8.48,12.41,47.59359,-54.27349
2023-11-11 00:44:01+00:00,280.0,7.45,286.0,9.52,12.41,47.59359,-54.27349
2023-11-11 00:54:01+00:00,282.0,7.37,285.0,9.49,12.41,47.59359,-54.27349
2023-11-11 01:04:01+00:00,279.0,7.46,279.0,8.83,12.41,47.59359,-54.27349
2023-11-11 01:14:01+00:00,286.0,6.85,280.0,9.47,12.33,47.59359,-54.27349
2023-11-11 01:24:01+00:00,297.0,8.18,292.0,9.52,12.33,47.59359,-54.27349
2023-11-11 01:34:01+00:00,298.0,8.45,303.0,9.78,12.33,47.59359,-54.27349
2023-11-11 01:44:01+00:00,291.0,8.8,301.0,10.73,12.33,47.59359,-54.27349
2023-11-11 01:54:01+00:00,289.0,8.42,290.0,9.58,12.33,47.59359,-54.27349
2023-11-11 02:04:01+00:00,288.0,8.63,289.0,9.93,12.33,47.59359,-54.27349
2023-11-11 02:14:00+00:00,286.0,8.32,287.0,9.75,12.33,47.59359,-54.27349
2023-11-11 02:24:00+00:00,289.0,8.8,290.0,9.99,12.33,47.59359,-54.27349
2023-11-11 02:34:00+00:00,301.0,8.54,309.0,10.22,12.33,47.59359,-54.27349
2023-11-11 02:44:00+00:00,300.0,8.99,300.0,10.58,12.33,47.59359,-54.27349
2023-11-11 02:54:00+00:00,305.0,8.92,309.0,10.67,12.33,47.59359,-54.27349
2023-11-11 03:04:00+00:00,303.0,8.26,307.0,10.03,12.33,47.59359,-54.27349
2023-11-11 03:14:01+00:00,306.0,8.9,305.0,10.84,12.33,47.59359,-54.27349
2023-11-11 03:24:01+00:00,301.0,8.85,295.0,10.95,12.33,47.59359,-54.27349
2023-11-11 03:34:01+00:00,298.0,8.9,301.0,11.57,12.33,47.59359,-54.27349
2023-11-11 03:44:01+00:00,308.0,10.04,307.0,11.75,12.33,47.59359,-54.27349
2023-11-11 03:54:01+00:00,300.0,8.44,300.0,10.33,12.33,47.59359,-54.27349
2023-11-11 04:04:01+00:00,294.0,8.05,299.0,9.57,12.33,47.59359,-54.27349
2023-11-11 04:14:01+00:00,303.0,8.1,290.0,9.52,12.33,47.59359,-54.27349
2023-11-11 04:24:01+00:00,302.0,8.79,311.0,10.16,12.33,47.59359,-54.27349
2023-11-11 04:34:01+00:00,300.0,8.63,297.0,10.45,12.33,47.59359,-54.27349
2023-11-11 04:44:01+00:00,300.0,8.12,296.0,9.62,12.33,47.59359,-54.27349
2023-11-11 04:54:01+00:00,303.0,8.76,300.0,10.09,12.33,47.59359,-54.27349
2023-11-11 05:04:01+00:00,300.0,8.59,298.0,9.99,12.33,47.59359,-54.27349
2023-11-11 05:14:00+00:00,300.0,8.17,306.0,10.07,12.33,47.59359,-54.27349
2023-11-11 05:24:00+00:00,306.0,9.4,311.0,11.72,12.33,47.59359,-54.27349
2023-11-11 05:34:00+00:00,303.0,7.89,297.0,10.22,12.33,47.59359,-54.27349
2023-11-11 05:44:00+00:00,306.0,7.8,291.0,10.27,12.33,47.59359,-54.27349
2023-11-11 05:54:00+00:00,306.0,8.17,306.0,10.77,12.33,47.59359,-54.27349
2023-11-11 06:04:00+00:00,300.0,8.2,310.0,10.7,12.33,47.59359,-54.27349
2023-11-11 06:14:01+00:00,308.0,8.7,303.0,11.05,12.25,47.59359,-54.27349
2023-11-11 06:24:01+00:00,308.0,8.41,306.0,10.5,12.25,47.59359,-54.27349
2023-11-11 06:34:01+00:00,308.0,8.94,307.0,11.51,12.25,47.59359,-54.27349
2023-11-11 06:44:01+00:00,320.0,8.25,304.0,10.31,12.25,47.59359,-54.27349
2023-11-11 06:54:01+00:00,317.0,8.76,315.0,10.97,12.25,47.59359,-54.27349
2023-11-11 07:04:01+00:00,311.0,9.53,303.0,10.95,12.25,47.59359,-54.27349
2023-11-11 07:14:01+00:00,301.0,8.54,302.0,10.68,12.25,47.59359,-54.27349
2023-11-11 07:24:01+00:00,299.0,9.11,310.0,10.82,12.25,47.59359,-54.27349
2023-11-11 07:34:01+00:00,306.0,9.22,298.0,10.62,12.25,47.59359,-54.27349
2023-11-11 07:44:01+00:00,304.0,8.88,306.0,10.43,12.25,47.59359,-54.27349
2023-11-11 07:54:01+00:00,299.0,8.94,302.0,10.28,12.25,47.59359,-54.27349
2023-11-11 08:04:01+00:00,300.0,9.5,294.0,11.5,12.25,47.59359,-54.27349
2023-11-11 08:14:00+00:00,304.0,8.91,301.0,10.2,12.25,47.59359,-54.27349
2023-11-11 08:24:00+00:00,302.0,8.55,298.0,10.05,12.25,47.59359,-54.27349
2023-11-11 08:34:00+00:00,303.0,8.92,310.0,10.63,12.25,47.59359,-54.27349
2023-11-11 08:44:00+00:00,293.0,8.05,285.0,10.23,12.25,47.59359,-54.27349
2023-11-11 08:54:00+00:00,298.0,8.62,295.0,10.54,12.25,47.59359,-54.27349
2023-11-11 09:04:00+00:00,307.0,9.17,321.0,11.4,12.25,47.59359,-54.27349
2023-11-11 09:14:00+00:00,311.0,9.43,306.0,10.93,12.25,47.59359,-54.27349
2023-11-11 09:24:00+00:00,303.0,8.86,302.0,11.06,12.25,47.59359,-54.27349
2023-11-11 09:34:00+00:00,303.0,9.98,301.0,13.06,12.25,47.59359,-54.27349
2023-11-11 09:44:00+00:00,301.0,8.7,301.0,9.83,12.25,47.59359,-54.27349
2023-11-11 09:54:00+00:00,307.0,9.46,307.0,11.02,12.25,47.59359,-54.27349
2023-11-11 10:04:00+00:00,312.0,9.67,317.0,11.25,12.25,47.59359,-54.27349
2023-11-11 10:14:00+00:00,311.0,10.5,314.0,12.65,12.25,47.59359,-54.27349
2023-11-11 10:24:00+00:00,310.0,10.35,314.0,11.79,12.25,47.59359,-54.27349
2023-11-11 10:34:00+00:00,305.0,9.55,305.0,11.21,12.25,47.59359,-54.27349
2023-11-11 10:44:00+00:00,311.0,8.95,306.0,11.51,12.25,47.59359,-54.27349
2023-11-11 10:54:00+00:00,307.0,9.94,304.0,11.34,12.25,47.59359,-54.27349
2023-11-11 11:04:00+00:00,302.0,9.32,297.0,10.75,12.25,47.59359,-54.27349
2023-11-11 11:14:01+00:00,300.0,9.41,295.0,10.97,12.25,47.59359,-54.27349
2023-11-11 11:24:01+00:00,304.0,9.06,304.0,11.6,12.25,47.59359,-54.27349
2023-11-11 11:34:01+00:00,299.0,9.08,296.0,10.47,12.25,47.59359,-54.27349
2023-11-11 11:44:01+00:00,303.0,9.52,305.0,11.66,12.25,47.59359,-54.27349
2023-11-11 11:54:01+00:00,304.0,7.38,300.0,10.55,12.25,47.59359,-54.27349
2023-11-11 12:04:01+00:00,303.0,9.75,302.0,11.38,12.25,47.59359,-54.27349
2023-11-11 12:14:01+00:00,305.0,9.13,299.0,11.37,13.29,47.59359,-54.27349
2023-11-11 12:24:01+00:00,309.0,8.76,305.0,11.26,13.29,47.59359,-54.27349
2023-11-11 12:34:01+00:00,311.0,8.75,303.0,11.9,13.29,47.59359,-54.27349
2023-11-11 12:44:01+00:00,311.0,10.05,302.0,11.56,13.29,47.59359,-54.27349
2023-11-11 12:54:01+00:00,317.0,10.01,307.0,11.61,13.29,47.59359,-54.27349
2023-11-11 13:04:01+00:00,307.0,9.87,304.0,11.6,13.29,47.59359,-54.27349
2023-11-11 13:14:00+00:00,329.0,8.94,331.0,10.48,13.68,47.59359,-54.27349
2023-11-11 13:24:00+00:00,314.0,7.98,301.0,11.07,13.68,47.59359,-54.27349
2023-11-11 13:34:00+00:00,323.0,8.03,318.0,10.56,13.68,47.59359,-54.27349
2023-11-11 13:44:00+00:00,317.0,8.01,303.0,11.27,13.68,47.59359,-54.27349
2023-11-11 13:54:00+00:00,315.0,7.68,303.0,11.39,13.68,47.59359,-54.27349
2023-11-11 14:04:00+00:00,320.0,10.22,325.0,14.14,13.68,47.59359,-54.27349
2023-11-11 14:14:00+00:00,325.0,9.11,309.0,11.0,13.68,47.59359,-54.27349
2023-11-11 14:24:00+00:00,331.0,8.39,332.0,9.2,13.68,47.59359,-54.27349
2023-11-11 14:34:00+00:00,317.0,9.54,320.0,11.08,13.68,47.59359,-54.27349
2023-11-11 14:44:00+00:00,328.0,8.4,338.0,9.19,13.68,47.59359,-54.27349
2023-11-11 14:54:00+00:00,321.0,9.02,317.0,11.06,13.68,47.59359,-54.27349
2023-11-11 15:04:00+00:00,323.0,9.82,321.0,12.96,13.68,47.59359,-54.27349
2023-11-11 15:14:00+00:00,335.0,8.72,342.0,10.55,13.68,47.59359,-54.27349
2023-11-11 15:24:00+00:00,338.0,9.93,342.0,12.1,13.68,47.59359,-54.27349
2023-11-11 15:34:00+00:00,327.0,8.78,324.0,10.59,13.68,47.59359,-54.27349
2023-11-11 15:44:00+00:00,342.0,10.44,341.0,11.56,13.68,47.59359,-54.27349
2023-11-11 15:54:00+00:00,334.0,10.44,343.0,12.19,13.68,47.59359,-54.27349
2023-11-11 16:04:00+00:00,335.0,9.84,333.0,11.35,13.68,47.59359,-54.27349
2023-11-11 16:14:00+00:00,331.0,11.14,326.0,13.3,13.6,47.59359,-54.27349
2023-11-11 16:24:00+00:00,327.0,12.26,326.0,14.89,13.6,47.59359,-54.27349
2023-11-11 16:34:00+00:00,318.0,11.77,316.0,13.74,13.6,47.59359,-54.27349
2023-11-11 16:44:00+00:00,328.0,10.73,324.0,12.43,13.6,47.59359,-54.27349
2023-11-11 16:54:00+00:00,334.0,11.5,336.0,12.92,13.6,47.59359,-54.27349
2023-11-11 17:04:00+00:00,326.0,11.97,336.0,13.62,13.6,47.59359,-54.27349
2023-11-11 17:14:00+00:00,323.0,10.84,329.0,12.49,13.68,47.59359,-54.27349
2023-11-11 17:24:00+00:00,326.0,10.57,327.0,12.15,13.68,47.59359,-54.27349
2023-11-11 17:34:00+00:00,331.0,11.1,341.0,12.7,13.68,47.59359,-54.27349
2023-11-11 17:44:00+00:00,330.0,10.15,336.0,11.09,13.68,47.59359,-54.27349
2023-11-11 17:54:00+00:00,333.0,9.57,338.0,11.15,13.68,47.59359,-54.27349
2023-11-11 18:04:00+00:00,324.0,11.65,328.0,12.68,13.68,47.59359,-54.27349
2023-11-11 18:14:00+00:00,327.0,9.67,325.0,10.34,13.68,47.59359,-54.27349
2023-11-11 18:24:00+00:00,324.0,10.27,323.0,11.6,13.68,47.59359,-54.27349
2023-11-11 18:34:00+00:00,329.0,10.84,331.0,12.25,13.68,47.59359,-54.27349
2023-11-11 18:44:00+00:00,328.0,9.82,337.0,11.68,13.68,47.59359,-54.27349
2023-11-11 18:54:00+00:00,327.0,9.22,325.0,10.53,13.68,47.59359,-54.27349
2023-11-11 19:04:00+00:00,334.0,10.11,338.0,12.81,13.68,47.59359,-54.27349
2023-11-11 19:14:00+00:00,332.0,9.15,338.0,10.17,13.44,47.59359,-54.27349
2023-11-11 19:24:00+00:00,345.0,9.36,340.0,11.16,13.44,47.59359,-54.27349
2023-11-11 19:34:00+00:00,331.0,8.89,328.0,10.09,13.44,47.59359,-54.27349
2023-11-11 19:44:00+00:00,326.0,9.6,330.0,11.35,13.44,47.59359,-54.27349
2023-11-11 19:54:00+00:00,332.0,9.71,342.0,11.1,13.44,47.59359,-54.27349
2023-11-11 20:04:00+00:00,338.0,10.0,336.0,11.41,13.44,47.59359,-54.27349
2023-11-11 20:14:00+00:00,336.0,7.56,332.0,8.79,12.81,47.59359,-54.27349
2023-11-11 20:24:00+00:00,338.0,7.79,344.0,9.31,12.81,47.59359,-54.27349
2023-11-11 20:34:00+00:00,329.0,9.26,334.0,10.89,12.81,47.59359,-54.27349
2023-11-11 20:44:00+00:00,329.0,8.11,326.0,9.24,12.81,47.59359,-54.27349
2023-11-11 20:54:00+00:00,330.0,8.43,325.0,9.53,12.81,47.59359,-54.27349
2023-11-11 21:04:00+00:00,332.0,8.83,329.0,10.23,12.81,47.59359,-54.27349
2023-11-11 21:14:01+00:00,332.0,7.6,335.0,8.95,12.49,47.59359,-54.27349
2023-11-11 21:24:01+00:00,338.0,8.57,339.0,10.38,12.49,47.59359,-54.27349
2023-11-11 21:34:01+00:00,338.0,8.48,337.0,9.64,12.49,47.59359,-54.27349
2023-11-11 21:44:01+00:00,339.0,7.97,339.0,9.24,12.49,47.59359,-54.27349
2023-11-11 21:54:01+00:00,338.0,7.08,344.0,8.15,12.49,47.59359,-54.27349
2023-11-11 22:04:01+00:00,336.0,8.92,330.0,11.16,12.49,47.59359,-54.27349
2023-11-11 22:14:01+00:00,332.0,8.76,333.0,10.02,12.41,47.59359,-54.27349
2023-11-11 22:24:01+00:00,329.0,9.2,325.0,10.85,12.41,47.59359,-54.27349
2023-11-11 22:34:01+00:00,345.0,7.56,343.0,8.96,12.41,47.59359,-54.27349
2023-11-11 22:44:01+00:00,338.0,8.02,342.0,8.71,12.41,47.59359,-54.27349
2023-11-11 22:54:01+00:00,331.0,8.07,327.0,9.17,12.41,47.59359,-54.27349
2023-11-11 23:04:01+00:00,331.0,8.17,328.0,9.18,12.41,47.59359,-54.27349
2023-11-11 23:14:01+00:00,337.0,7.66,334.0,8.76,12.41,47.59359,-54.27349
2023-11-11 23:24:01+00:00,327.0,7.28,324.0,8.16,12.41,47.59359,-54.27349
2023-11-11 23:34:01+00:00,344.0,7.5,344.0,9.87,12.41,47.59359,-54.27349
2023-11-11 23:44:01+00:00,334.0,8.2,337.0,9.15,12.41,47.59359,-54.27349
2023-11-11 23:54:01+00:00,345.0,8.46,6.0,10.45,12.41,47.59359,-54.27349
